Location: Sungai Kamana Besar
(2.6333°N, 113.4333°E)
Time: 04:53:29
(UTC+00:00)

Centaur AC-42 - Pass Details

Date: 29 May 2022
Orbit: 668 x 36218 km, 20.3° (Epoch: 24 June)

Event Time Altitude Azimuth Distance (km) Brightness Sun altitude
Rises 10:46:36 0° 258° (WSW) 12,807 9.3 -4.3°
Reaches altitude 10° 10:54:53 10° 260° (W) 13,884 9.4 -6.3°
Drops below altitude 10° 17:07:57 10° 288° (WNW) 38,433 10.5 -63.4°
Maximum altitude 20:48:02 67° 201° (SSW) 1,709 3.5 -21.1°
Sets 20:54:40 0° 121° (ESE) 3,252 5.8 -19.6°
